Simultaneous Nadir Overpasses (SNOs) Predictions

Prediction of SNOs between NOAA-19 and METOP-C Satellite Orbit:

Table of predicted SNOs for the next 14.0 days since TLE Epoch: 4/12/2025
Index Date (NOAA-19) Time (NOAA-19) Lat,Lon (NOAA-19) SZA (NOAA-19 ) Date (METOP-C) Time (METOP-C) Lat,Lon (METOP-C) SZA (METOP-C ) Distance(km) Time Diff (sec)
1 04/23/2025 20:26:05 79.93, -42.91 76.33 04/23/2025 20:27:19 79.94, -43.05 76.36 2.84 74
2 04/23/2025 21:16:59 -79.93, 124.34 103.69 04/23/2025 21:17:59 -79.92, 124.47 103.62 2.81 60
3 04/23/2025 22:07:59 79.86, -67.62 76.44 04/23/2025 22:08:38 79.87, -67.67 76.46 0.94 39
4 04/23/2025 22:58:51 -79.81, 100.22 103.48 04/23/2025 22:59:17 -79.81, 100.14 103.47 1.83 26
5 04/23/2025 23:49:52 79.76, -92.05 76.60 04/23/2025 23:49:56 79.76, -92.01 76.61 0.98 4
6 04/24/2025 00:40:44 -79.71, 75.78 103.32 04/24/2025 00:40:35 -79.71, 75.78 103.33 0.15 9
7 04/24/2025 01:31:45 79.66,-116.50 76.76 04/24/2025 01:31:14 79.65,-116.37 76.76 2.89 31
8 04/24/2025 02:22:38 -79.63, 51.04 103.21 04/24/2025 02:21:54 -79.63, 51.13 103.23 2.01 44



Historial Predications of SNOs between NOAA-19 and METOP-C
